Starlink 4208

operational
NORAD ID: 52844 Int'l Des: 2022-062 Owner: SPXS Country: US Constellation: starlink
LEOCIRCULAR

Starlink 4208について

説明を読み込み中...

リアルタイム位置

3D地球を読み込み中...

次回通過

高度履歴

Altitude vs Time

uPlot chart will show altitude changes over time

軌道要素

1 52844U 22062Q 25304.16980543 .00000330 00000-0 38844-4 0 9992
2 52844 53.2171 255.5608 0001498 95.0548 265.0615 15.08838649186235
Epoch: Oct 31, 2025 • Age: 9 hours

現在のステータス

高度 549.1 km
速度 7.59 km/s
衛星直下点 -29.24°S, 136.34°W
打ち上げ日 Jun 17, 2022
運用期間 3.3 years
タイプ internet

技術仕様

分類 Payload
質量 297.00 kg
乾燥質量 275.00 kg
総質量 297.00 kg
長さ 0.20 m
直径 2.80 m
スパン 9.00 m
形状 Box + pan
製造者 SPXS
バスタイプ Starlink
フェーズステータス In Orbit
所有者/国 SPXS/US

大規模コンステレーション

Loading constellations...